Regional Weather Roundup
Issued by NWS Little Rock, AR

Home | Current Version | Previous Version | Text Only | Print | Product List | Glossary Off
Versions: 1 2 3 4 5 6 7 8 9 10 11 12 13 14 15 16 17 18 19 20 21 22 23 24 25 26 27 28 29 30 31 32 33 34 35 36 37 38 39 40 41 42 43 44 45 46 47 48 49 50

000
ASUS44 KLZK 291405
RWRLZK

WEATHER ROUNDUP FOR ARKANSAS
NATIONAL WEATHER SERVICE LITTLE ROCK AR
900 AM CDT SUN MAR 29 2015

NOTE: "FAIR" INDICATES FEW OR NO CLOUDS BELOW 12,000 FEET WITH NO
SIGNIFICANT WEATHER AND/OR OBSTRUCTIONS TO VISIBILITY.

ARZ001-003-010-029-291500-
NORTHWEST ARKANSAS

CITY           SKY/WX    TMP DP  RH WIND       PRES   REMARKS
FAYETTEVILLE   SUNNY     49  38  65 S12       30.02F
FORT SMITH     SUNNY     43  34  70 E14       30.09F
HARRISON       SUNNY     45  31  58 SE20G28   30.05F
BENTONVILLE    SUNNY     48  36  61 SE8       30.02R
ROGERS         SUNNY     49  35  58 SE17      30.01S
SILOAM SPGS    SUNNY     50  34  53 S12G21    30.01F
HIGHFILL       SUNNY     50  36  58 S15       29.99F
SPRINGDALE     SUNNY     46  36  66 SE17      30.03F
$$

ARZ004-005-016-291500-
NORTH CENTRAL ARKANSAS

CITY           SKY/WX    TMP DP  RH WIND       PRES   REMARKS
BATESVILLE     SUNNY     41  30  65 SE9       30.19F
FLIPPIN        SUNNY     39  28  65 SE8       30.12F
MTN HOME       SUNNY     39  28  64 SE13G18   30.11F
$$

ARZ040-041-291500-
WEST CENTRAL ARKANSAS

CITY           SKY/WX    TMP DP  RH WIND       PRES   REMARKS
MENA           SUNNY     43  36  75 CALM      30.12F
MOUNT IDA      SUNNY     45  35  68 VRB3      30.11F
$$

ARZ009-017-025-026-028-291500-
NORTHEAST ARKANSAS

CITY           SKY/WX    TMP DP  RH WIND       PRES   REMARKS
CORNING          N/A     41  28  60 SE12      30.23F
JONESBORO      SUNNY     41  30  65 S10       30.23F
NEWPORT        CLOUDY    41  33  73 SE10      30.23F
BLYTHEVILLE    SUNNY     43  26  51 S17G26    30.25F
$$

ARZ022-023-033-042-044-291500-
CENTRAL ARKANSAS

CITY           SKY/WX    TMP DP  RH WIND       PRES   REMARKS
LITTLE ROCK    CLOUDY    46  34  62 SE8       30.19F
N LITTLE ROCK  CLOUDY    43  36  77 SE9G16    30.19F
JACKSONVILLE   CLOUDY    43  35  73 E5        30.19S
SEARCY         CLOUDY    42  33  70 SE7       30.23S
HOT SPRINGS    CLOUDY    43  34  70 E8        30.17F
RUSSELLVILLE   SUNNY     41  33  73 E8        30.16F
CLINTON        PTSUNNY   36  34  93 CALM      30.21F FOG
$$

ARZ036-291500-
EAST ARKANSAS

CITY           SKY/WX    TMP DP  RH WIND       PRES   REMARKS
WEST MEMPHIS   CLOUDY    43  30  60 S15       30.23F
$$

ARZ050-053-066-070-073-291500-
SOUTHWEST ARKANSAS

CITY           SKY/WX    TMP DP  RH WIND       PRES   REMARKS
ARKADELPHIA    CLOUDY    42  37  82 CALM      30.20R
CAMDEN         CLOUDY    46  37  71 MISG      30.18F
TEXARKANA      CLOUDY    46  41  82 SE5       30.15S
EL DORADO      CLOUDY    50  41  71 SE10      30.19R
DE QUEEN       SUNNY     44  36  73 E8        30.13F
$$

ARZ056-057-069-291500-
SOUTHEAST ARKANSAS

CITY           SKY/WX    TMP DP  RH WIND       PRES   REMARKS
PINE BLUFF     CLOUDY    46  37  71 SE10      30.21S
STUTTGART      CLOUDY    45  34  65 SE13      30.20F
MONTICELLO     CLOUDY    48  36  63 SE13G20   30.21S

$$




USA.gov is the U.S. government's official web portal to all federal, state and local government web resources and services.